Time,TemperatureF,DewpointF,PressureIn,WindDirection,WindDirectionDegrees,WindSpeedMPH,WindSpeedGustMPH,Humidity,HourlyPrecipIn,Conditions,Clouds,dailyrainin,SoftwareType,DateUTC
2013-02-24 00:01:00,71.0,70.0,29.96,SE,126,2.0,2.0,97,-99.99,,,-99.99,,2013-02-24 05:01:00,
2013-02-24 00:11:00,71.0,70.0,29.96,SSW,198,3.0,4.0,97,-99.99,,,-99.99,,2013-02-24 05:11:00,
2013-02-24 00:22:00,71.0,70.0,29.96,SSW,198,3.0,4.0,97,-99.99,,,-99.99,,2013-02-24 05:22:00,
2013-02-24 00:32:00,70.0,70.0,29.96,SW,216,4.0,5.0,97,-99.99,,,-99.99,,2013-02-24 05:32:00,
2013-02-24 00:42:00,71.0,70.0,29.96,SW,224,4.0,6.0,98,-99.99,,,-99.99,,2013-02-24 05:42:00,
2013-02-24 00:52:00,71.0,70.0,29.95,SSW,204,4.0,5.0,98,-99.99,,,-99.99,,2013-02-24 05:52:00,
2013-02-24 01:02:00,71.0,70.0,29.95,SSW,204,4.0,5.0,98,-99.99,,,-99.99,,2013-02-24 06:02:00,
2013-02-24 01:11:00,70.0,70.0,29.95,SSW,210,4.0,6.0,98,-99.99,,,-99.99,,2013-02-24 06:11:00,
2013-02-24 01:21:00,70.0,69.0,29.95,SW,219,4.0,6.0,98,-99.99,,,-99.99,,2013-02-24 06:21:00,
2013-02-24 01:32:00,70.0,69.0,29.95,SW,219,4.0,6.0,98,-99.99,,,-99.99,,2013-02-24 06:32:00,
2013-02-24 01:42:00,69.0,69.0,29.95,SW,229,4.0,5.0,98,-99.99,,,-99.99,,2013-02-24 06:42:00,
2013-02-24 01:52:00,70.0,69.0,29.95,SW,223,4.0,6.0,98,-99.99,,,-99.99,,2013-02-24 06:52:00,
2013-02-24 02:01:00,70.0,69.0,29.95,SW,223,4.0,6.0,98,-99.99,,,-99.99,,2013-02-24 07:01:00,
2013-02-24 02:12:00,70.0,70.0,29.95,SW,232,3.0,5.0,99,-99.99,,,-99.99,,2013-02-24 07:12:00,
2013-02-24 02:22:00,70.0,70.0,29.95,SW,232,3.0,5.0,99,-99.99,,,-99.99,,2013-02-24 07:22:00,
2013-02-24 02:32:00,71.0,70.0,29.95,SW,219,4.0,7.0,99,-99.99,,,-99.99,,2013-02-24 07:32:00,
2013-02-24 02:42:00,71.0,70.0,29.95,SW,217,4.0,7.0,99,-99.99,,,-99.99,,2013-02-24 07:42:00,
2013-02-24 02:52:00,71.0,71.0,29.94,SSW,211,5.0,8.0,99,-99.99,,,-99.99,,2013-02-24 07:52:00,
2013-02-24 03:01:00,71.0,71.0,29.94,SSW,211,5.0,8.0,99,-99.99,,,-99.99,,2013-02-24 08:01:00,
2013-02-24 03:11:00,71.0,71.0,29.94,SSW,211,5.0,8.0,99,-99.99,,,-99.99,,2013-02-24 08:11:00,
2013-02-24 03:22:00,71.0,71.0,29.94,SSW,211,5.0,8.0,99,-99.99,,,-99.99,,2013-02-24 08:22:00,
2013-02-24 03:32:00,71.0,71.0,29.93,SSW,209,6.0,9.0,99,-99.99,,,-99.99,,2013-02-24 08:32:00,
2013-02-24 03:42:00,71.0,71.0,29.93,SSW,206,5.0,8.0,99,-99.99,,,-99.99,,2013-02-24 08:42:00,
2013-02-24 03:54:00,71.0,71.0,29.93,SSW,205,5.0,8.0,99,-99.99,,,-99.99,,2013-02-24 08:54:00,
2013-02-24 04:01:00,71.0,71.0,29.93,SSW,205,5.0,8.0,99,-99.99,,,-99.99,,2013-02-24 09:01:00,
2013-02-24 04:11:00,71.0,71.0,29.92,SSW,204,6.0,11.0,99,-99.99,,,-99.99,,2013-02-24 09:11:00,
2013-02-24 04:22:00,71.0,71.0,29.92,SSW,204,6.0,11.0,99,-99.99,,,-99.99,,2013-02-24 09:22:00,
2013-02-24 04:32:00,72.0,71.0,29.92,SSW,204,7.0,10.0,99,-99.99,,,-99.99,,2013-02-24 09:32:00,
2013-02-24 04:42:00,72.0,71.0,29.92,SW,214,7.0,12.0,99,-99.99,,,-99.99,,2013-02-24 09:42:00,
2013-02-24 04:52:00,71.0,71.0,29.92,SSW,209,7.0,12.0,99,-99.99,,,-99.99,,2013-02-24 09:52:00,
2013-02-24 05:01:00,71.0,71.0,29.92,SSW,209,7.0,12.0,99,-99.99,,,-99.99,,2013-02-24 10:01:00,
2013-02-24 05:11:00,71.0,71.0,29.92,SSW,203,8.0,11.0,99,-99.99,,,-99.99,,2013-02-24 10:11:00,
2013-02-24 05:22:00,71.0,71.0,29.92,SSW,203,8.0,11.0,99,-99.99,,,-99.99,,2013-02-24 10:22:00,
2013-02-24 05:32:00,71.0,71.0,29.92,SSW,203,7.0,10.0,99,-99.99,,,-99.99,,2013-02-24 10:32:00,
2013-02-24 05:42:00,71.0,71.0,29.92,SSW,203,7.0,10.0,99,-99.99,,,-99.99,,2013-02-24 10:42:00,
2013-02-24 05:52:00,71.0,71.0,29.92,SSW,202,6.0,9.0,99,-99.99,,,-99.99,,2013-02-24 10:52:00,
2013-02-24 06:01:00,71.0,71.0,29.92,SSW,202,6.0,9.0,99,-99.99,,,-99.99,,2013-02-24 11:01:00,
2013-02-24 06:11:00,71.0,71.0,29.92,SSW,206,5.0,8.0,99,-99.99,,,-99.99,,2013-02-24 11:11:00,
2013-02-24 06:22:00,71.0,71.0,29.92,SSW,206,5.0,8.0,99,-99.99,,,-99.99,,2013-02-24 11:22:00,
2013-02-24 06:32:00,71.0,71.0,29.92,SSW,206,5.0,8.0,99,-99.99,,,-99.99,,2013-02-24 11:32:00,
2013-02-24 06:42:00,71.0,71.0,29.94,WSW,244,4.0,6.0,99,-99.99,,,-99.99,,2013-02-24 11:42:00,
2013-02-24 06:53:00,71.0,71.0,29.94,West,272,3.0,6.0,99,-99.99,,,-99.99,,2013-02-24 11:53:00,
2013-02-24 07:02:00,71.0,71.0,29.94,West,272,3.0,6.0,99,-99.99,,,-99.99,,2013-02-24 12:02:00,
2013-02-24 07:11:00,71.0,70.0,29.94,West,267,2.0,3.0,99,-99.99,,,-99.99,,2013-02-24 12:11:00,
2013-02-24 07:22:00,71.0,70.0,29.94,West,267,2.0,3.0,99,-99.99,,,-99.99,,2013-02-24 12:22:00,
2013-02-24 07:32:00,71.0,70.0,29.94,SSW,209,4.0,5.0,99,-99.99,,,-99.99,,2013-02-24 12:32:00,
2013-02-24 07:46:00,70.0,70.0,29.94,SSW,203,4.0,9.0,99,-99.99,,,-99.99,,2013-02-24 12:46:00,
2013-02-24 07:58:00,71.0,71.0,29.95,SSW,210,4.0,7.0,99,-99.99,,,-99.99,,2013-02-24 12:58:00,
2013-02-24 08:14:00,71.0,71.0,29.95,SSW,210,4.0,7.0,99,-99.99,,,-99.99,,2013-02-24 13:14:00,
2013-02-24 08:27:00,71.0,71.0,29.96,WSW,238,4.0,7.0,99,-99.99,,,-99.99,,2013-02-24 13:27:00,
2013-02-24 08:34:00,72.0,71.0,29.96,SW,234,5.0,8.0,99,-99.99,,,-99.99,,2013-02-24 13:34:00,
2013-02-24 08:45:00,72.0,71.0,29.97,WSW,240,6.0,10.0,99,-99.99,,,-99.99,,2013-02-24 13:45:00,
2013-02-24 09:05:00,72.0,72.0,29.98,WSW,241,7.0,12.0,99,-99.99,,,-99.99,,2013-02-24 14:05:00,
2013-02-24 09:14:00,72.0,72.0,29.98,WSW,247,6.0,10.0,99,-99.99,,,-99.99,,2013-02-24 14:14:00,
2013-02-24 09:25:00,72.0,72.0,29.98,WSW,247,6.0,10.0,99,-99.99,,,-99.99,,2013-02-24 14:25:00,
2013-02-24 09:34:00,72.0,72.0,29.98,WSW,247,6.0,10.0,99,-99.99,,,-99.99,,2013-02-24 14:34:00,
2013-02-24 09:44:00,74.0,72.0,29.98,WSW,241,6.0,10.0,94,-99.99,,,-99.99,,2013-02-24 14:44:00,
2013-02-24 09:55:00,75.0,72.0,29.98,WSW,241,6.0,9.0,90,-99.99,,,-99.99,,2013-02-24 14:55:00,
2013-02-24 10:04:00,75.0,72.0,29.98,WSW,241,6.0,9.0,90,-99.99,,,-99.99,,2013-02-24 15:04:00,
2013-02-24 10:14:00,76.0,72.0,29.99,SW,226,5.0,9.0,87,-99.99,,,-99.99,,2013-02-24 15:14:00,
2013-02-24 10:24:00,76.0,72.0,29.99,SW,226,5.0,9.0,87,-99.99,,,-99.99,,2013-02-24 15:24:00,
2013-02-24 10:32:00,77.0,72.0,29.99,WSW,245,5.0,8.0,85,-99.99,,,-99.99,,2013-02-24 15:32:00,
2013-02-24 10:42:00,77.0,72.0,29.99,West,264,5.0,10.0,84,-99.99,,,-99.99,,2013-02-24 15:42:00,
2013-02-24 10:53:00,77.0,71.0,29.99,WSW,251,6.0,10.0,81,-99.99,,,-99.99,,2013-02-24 15:53:00,
2013-02-24 11:02:00,77.0,71.0,29.99,WSW,251,6.0,10.0,81,-99.99,,,-99.99,,2013-02-24 16:02:00,
2013-02-24 11:12:00,78.0,72.0,29.99,WSW,256,5.0,7.0,80,-99.99,,,-99.99,,2013-02-24 16:12:00,
2013-02-24 11:22:00,78.0,72.0,29.99,WSW,256,5.0,7.0,80,-99.99,,,-99.99,,2013-02-24 16:22:00,
2013-02-24 11:32:00,79.0,71.0,29.99,WSW,242,7.0,12.0,76,-99.99,,,-99.99,,2013-02-24 16:32:00,
2013-02-24 11:42:00,79.0,71.0,29.99,WSW,242,7.0,12.0,76,-99.99,,,-99.99,,2013-02-24 16:42:00,
2013-02-24 11:52:00,80.0,71.0,29.98,SW,234,6.0,10.0,72,-99.99,,,-99.99,,2013-02-24 16:52:00,
2013-02-24 12:01:00,80.0,71.0,29.98,SW,234,6.0,10.0,72,-99.99,,,-99.99,,2013-02-24 17:01:00,
2013-02-24 12:11:00,81.0,69.0,29.97,WSW,251,6.0,10.0,68,-99.99,,,-99.99,,2013-02-24 17:11:00,
2013-02-24 12:22:00,81.0,69.0,29.97,WSW,251,6.0,10.0,68,-99.99,,,-99.99,,2013-02-24 17:22:00,
2013-02-24 12:32:00,81.0,69.0,29.97,WSW,251,6.0,10.0,68,-99.99,,,-99.99,,2013-02-24 17:32:00,
2013-02-24 12:42:00,82.0,69.0,29.95,SW,232,7.0,12.0,63,-99.99,,,-99.99,,2013-02-24 17:42:00,
2013-02-24 12:53:00,83.0,69.0,29.94,SW,225,8.0,13.0,62,-99.99,,,-99.99,,2013-02-24 17:53:00,
2013-02-24 13:02:00,83.0,69.0,29.94,SW,225,8.0,13.0,62,-99.99,,,-99.99,,2013-02-24 18:02:00,
2013-02-24 13:11:00,84.0,69.0,29.94,SW,214,7.0,12.0,61,-99.99,,,-99.99,,2013-02-24 18:11:00,
2013-02-24 13:22:00,84.0,69.0,29.94,SW,214,7.0,12.0,61,-99.99,,,-99.99,,2013-02-24 18:22:00,
2013-02-24 13:32:00,83.0,69.0,29.93,WSW,237,7.0,12.0,60,-99.99,,,-99.99,,2013-02-24 18:32:00,
2013-02-24 13:42:00,84.0,69.0,29.92,WSW,237,6.0,11.0,60,-99.99,,,-99.99,,2013-02-24 18:42:00,
2013-02-24 13:52:00,84.0,68.0,29.91,WSW,245,7.0,13.0,57,-99.99,,,-99.99,,2013-02-24 18:52:00,
2013-02-24 14:01:00,84.0,68.0,29.91,WSW,245,7.0,13.0,57,-99.99,,,-99.99,,2013-02-24 19:01:00,
2013-02-24 14:12:00,85.0,68.0,29.91,SW,216,8.0,16.0,56,-99.99,,,-99.99,,2013-02-24 19:12:00,
2013-02-24 14:22:00,85.0,68.0,29.91,SW,216,8.0,16.0,56,-99.99,,,-99.99,,2013-02-24 19:22:00,
2013-02-24 14:32:00,85.0,68.0,29.91,SW,216,8.0,16.0,56,-99.99,,,-99.99,,2013-02-24 19:32:00,
2013-02-24 14:42:00,85.0,67.0,29.90,WSW,241,8.0,13.0,55,-99.99,,,-99.99,,2013-02-24 19:42:00,
2013-02-24 14:52:00,85.0,67.0,29.90,WSW,240,8.0,12.0,54,-99.99,,,-99.99,,2013-02-24 19:52:00,
2013-02-24 15:02:00,85.0,67.0,29.90,WSW,240,8.0,12.0,54,-99.99,,,-99.99,,2013-02-24 20:02:00,
2013-02-24 15:11:00,86.0,67.0,29.89,WSW,243,6.0,10.0,53,-99.99,,,-99.99,,2013-02-24 20:11:00,
2013-02-24 15:22:00,86.0,67.0,29.89,WSW,243,6.0,10.0,53,-99.99,,,-99.99,,2013-02-24 20:22:00,
2013-02-24 15:32:00,86.0,67.0,29.89,SW,227,8.0,14.0,53,-99.99,,,-99.99,,2013-02-24 20:32:00,
2013-02-24 15:42:00,86.0,67.0,29.89,SW,218,9.0,13.0,53,-99.99,,,-99.99,,2013-02-24 20:42:00,
2013-02-24 15:52:00,86.0,67.0,29.89,SSW,212,5.0,10.0,53,-99.99,,,-99.99,,2013-02-24 20:52:00,
2013-02-24 16:02:00,86.0,67.0,29.89,SSW,212,5.0,10.0,53,-99.99,,,-99.99,,2013-02-24 21:02:00,
2013-02-24 16:11:00,86.0,68.0,29.89,SW,229,6.0,10.0,53,-99.99,,,-99.99,,2013-02-24 21:11:00,
2013-02-24 16:21:00,86.0,68.0,29.89,SW,229,6.0,10.0,53,-99.99,,,-99.99,,2013-02-24 21:21:00,
2013-02-24 16:32:00,86.0,68.0,29.89,SW,229,6.0,10.0,53,-99.99,,,-99.99,,2013-02-24 21:32:00,
2013-02-24 16:42:00,85.0,69.0,29.89,SSW,194,5.0,9.0,57,-99.99,,,-99.99,,2013-02-24 21:42:00,
2013-02-24 16:52:00,82.0,71.0,29.89,SSE,155,9.0,14.0,68,-99.99,,,-99.99,,2013-02-24 21:52:00,
2013-02-24 17:01:00,82.0,71.0,29.89,SSE,155,9.0,14.0,68,-99.99,,,-99.99,,2013-02-24 22:01:00,
2013-02-24 17:11:00,82.0,71.0,29.89,SSE,149,10.0,15.0,68,-99.99,,,-99.99,,2013-02-24 22:11:00,
2013-02-24 17:22:00,82.0,71.0,29.89,SSE,149,10.0,15.0,68,-99.99,,,-99.99,,2013-02-24 22:22:00,
2013-02-24 17:32:00,81.0,71.0,29.89,SSE,147,8.0,13.0,70,-99.99,,,-99.99,,2013-02-24 22:32:00,
2013-02-24 17:42:00,80.0,70.0,29.89,SSE,155,9.0,14.0,70,-99.99,,,-99.99,,2013-02-24 22:42:00,
2013-02-24 17:52:00,80.0,70.0,29.89,SE,145,8.0,12.0,72,-99.99,,,-99.99,,2013-02-24 22:52:00,
2013-02-24 18:02:00,80.0,70.0,29.89,SE,145,8.0,12.0,72,-99.99,,,-99.99,,2013-02-24 23:02:00,
2013-02-24 18:11:00,79.0,71.0,29.90,SSE,148,7.0,11.0,73,-99.99,,,-99.99,,2013-02-24 23:11:00,
2013-02-24 18:21:00,79.0,71.0,29.90,SSE,148,7.0,11.0,73,-99.99,,,-99.99,,2013-02-24 23:21:00,
2013-02-24 18:32:00,79.0,71.0,29.90,SSE,148,7.0,11.0,73,-99.99,,,-99.99,,2013-02-24 23:32:00,
2013-02-24 18:42:00,78.0,69.0,29.89,SSE,154,8.0,14.0,71,-99.99,,,-99.99,,2013-02-24 23:42:00,
2013-02-24 18:52:00,78.0,69.0,29.90,SSE,148,7.0,10.0,74,-99.99,,,-99.99,,2013-02-24 23:52:00,
2013-02-24 19:02:00,78.0,69.0,29.90,SSE,148,7.0,10.0,74,-99.99,,,-99.99,,2013-02-25 00:02:00,
2013-02-24 19:11:00,77.0,70.0,29.90,SSE,159,7.0,13.0,77,-99.99,,,-99.99,,2013-02-25 00:11:00,
2013-02-24 19:22:00,77.0,70.0,29.90,SSE,159,7.0,13.0,77,-99.99,,,-99.99,,2013-02-25 00:22:00,
2013-02-24 19:32:00,77.0,70.0,29.90,SSE,160,7.0,11.0,79,-99.99,,,-99.99,,2013-02-25 00:32:00,
2013-02-24 19:42:00,77.0,71.0,29.90,SSE,158,7.0,10.0,81,-99.99,,,-99.99,,2013-02-25 00:42:00,
2013-02-24 19:52:00,77.0,71.0,29.90,SSE,163,7.0,10.0,83,-99.99,,,-99.99,,2013-02-25 00:52:00,
2013-02-24 20:01:00,77.0,71.0,29.90,SSE,163,7.0,10.0,83,-99.99,,,-99.99,,2013-02-25 01:01:00,
2013-02-24 20:11:00,76.0,71.0,29.91,South,171,6.0,9.0,83,-99.99,,,-99.99,,2013-02-25 01:11:00,
2013-02-24 20:21:00,76.0,71.0,29.91,South,171,6.0,9.0,83,-99.99,,,-99.99,,2013-02-25 01:21:00,
2013-02-24 20:32:00,76.0,71.0,29.91,South,171,6.0,9.0,83,-99.99,,,-99.99,,2013-02-25 01:32:00,
2013-02-24 20:42:00,76.0,71.0,29.92,South,174,6.0,8.0,83,-99.99,,,-99.99,,2013-02-25 01:42:00,
2013-02-24 20:52:00,76.0,70.0,29.92,South,174,5.0,8.0,82,-99.99,,,-99.99,,2013-02-25 01:52:00,
2013-02-24 21:01:00,76.0,70.0,29.92,South,174,5.0,8.0,82,-99.99,,,-99.99,,2013-02-25 02:01:00,
2013-02-24 21:11:00,75.0,70.0,29.92,South,179,5.0,7.0,83,-99.99,,,-99.99,,2013-02-25 02:11:00,
2013-02-24 21:21:00,75.0,70.0,29.92,South,179,5.0,7.0,83,-99.99,,,-99.99,,2013-02-25 02:21:00,
2013-02-24 21:32:00,75.0,70.0,29.92,South,179,5.0,7.0,83,-99.99,,,-99.99,,2013-02-25 02:32:00,
2013-02-24 21:42:00,73.0,70.0,29.93,SW,216,4.0,5.0,89,-99.99,,,-99.99,,2013-02-25 02:42:00,
2013-02-24 21:52:00,73.0,70.0,29.93,SSW,208,4.0,6.0,90,-99.99,,,-99.99,,2013-02-25 02:52:00,
2013-02-24 22:02:00,73.0,70.0,29.93,SSW,208,4.0,6.0,90,-99.99,,,-99.99,,2013-02-25 03:02:00,
2013-02-24 22:11:00,72.0,70.0,29.94,SW,232,4.0,5.0,92,-99.99,,,-99.99,,2013-02-25 03:11:00,
2013-02-24 22:21:00,72.0,70.0,29.94,SW,232,4.0,5.0,92,-99.99,,,-99.99,,2013-02-25 03:21:00,
2013-02-24 22:32:00,72.0,71.0,29.94,West,270,4.0,6.0,94,-99.99,,,-99.99,,2013-02-25 03:32:00,
2013-02-24 22:42:00,73.0,71.0,29.94,West,275,5.0,7.0,91,-99.99,,,-99.99,,2013-02-25 03:42:00,
2013-02-24 22:52:00,73.0,70.0,29.94,West,267,6.0,9.0,88,-99.99,,,-99.99,,2013-02-25 03:52:00,
2013-02-24 23:02:00,73.0,70.0,29.94,West,267,6.0,9.0,88,-99.99,,,-99.99,,2013-02-25 04:02:00,
2013-02-24 23:11:00,74.0,69.0,29.93,West,264,6.0,8.0,85,-99.99,,,-99.99,,2013-02-25 04:11:00,
2013-02-24 23:21:00,74.0,69.0,29.93,West,264,6.0,8.0,85,-99.99,,,-99.99,,2013-02-25 04:21:00,
2013-02-24 23:32:00,73.0,69.0,29.93,West,259,5.0,7.0,84,-99.99,,,-99.99,,2013-02-25 04:32:00,
2013-02-24 23:42:00,73.0,69.0,29.93,West,259,5.0,7.0,84,-99.99,,,-99.99,,2013-02-25 04:42:00,
2013-02-24 23:52:00,73.0,68.0,29.91,WSW,255,5.0,9.0,86,-99.99,,,-99.99,,2013-02-25 04:52:00,